www.pogodaiklimat.ru

Погода и климат >> Архив погоды >> Россия >> Якутия >> Шелагонцы


ПОГОДА в Шелагонцах

  • Прогноз погоды в Шелагонцах
  • Монитор погоды в Шелагонцах
  • Климат города

АРХИВ ПОГОДЫ в Шелагонцах

Время (UTC), дата Ветер
(напр.,м/с)
 
Видим.   Явления Облачность Т
(С)
Тd
(С)
f
(%)
Тe
(С)
Тes
(С)
Комфортность P
(гПа)
Po
(гПа)
Тmin
(С)
Tmax
(С)
R
(мм)
S
(см)
09 17.02 штиль 0 50 км {снег} 3/0
[As trans Cc]
-25.8 -30.5 65 -26 -26 1014.7 982.3
12 17.02 штиль 0 50 км ясно -36.0 -39.0 74 -36 -36 опасность
обморожения
1015.4 982.1 -25.7
15 17.02 штиль 0 50 км ясно -38.4 -40.2 83 -38 -38 опасность
обморожения
1015.0 980.9
18 17.02 штиль 0 50 км 3/0
[Cs]
-36.5 -39.4 74 -37 -37 опасность
обморожения
1014.5 980.7
00 18.02 штиль 0 20 км слабый снег 10/0
[Ac As]
-33.5 -37.8 65 -34 -34 опасность
обморожения
1011.4 978.0 -40.3 0.0 35
03 18.02 штиль 0 50 км {снег} 10/0
[As op]
-31.2 -34.3 74 -31 -31 опасность
обморожения
1010.5 977.5
06 18.02 штиль 0 20 км слабый снег 6/0
[As op]
-25.0 -29.7 65 -25 -25 1008.4 976.3
09 18.02 штиль 0 20 км {снег} 9/0
[Ac lent Cc]
-24.2 -28.1 70 -24 -24 1008.2 976.2
21 18.02 штиль 0 50 км ясно -41.3 -44.4 72 -41 -41 опасность
обморожения
1010.8 976.4
00 19.02 штиль 0 20 км слабый снег 8/0
[Ac As]
-40.1 -42.8 75 -40 -40 опасность
обморожения
1008.7 974.5 -42.5 35
03 19.02 штиль 0 20 км слабый снег 10/0
[As op]
-33.2 -36.3 74 -33 -33 опасность
обморожения
1006.4 973.3
06 19.02 штиль 0 50 км {снег} 8/0
[Ac As]
-20.5 -24.6 70 -21 -20 1003.8 972.4
09 19.02 штиль 0 20 км слабый снег 10/0
[As op]
-23.4 -27.4 70 -23 -23 1005.5 973.6
12 19.02 штиль 0 20 км слабый снег 5/0
[Cs]
-26.0 -29.1 75 -26 -26 1007.9 975.7 -20.4 0.2
15 19.02 штиль 0 50 км {снег} ясно -29.0 -32.1 74 -29 -29 1009.4 976.6
18 19.02 штиль 0 50 км {снег} ясно -36.4 -39.4 74 -36 -36 опасность
обморожения
1009.3 977.6
21 19.02 штиль 0 50 км ледяные иглы {снег} ясно -40.2 -42.8 76 -40 -40 опасность
обморожения
1014.0 979.6
00 20.02 штиль 0 50 км {снег} 4/0
[Ac lent]
-42.0 -45.0 72 -42 -42 опасность
обморожения
1015.6 980.9 -42.6 0.0 37
03 20.02 штиль 0 50 км {снег} 3/0
[Ac lent]
-38.9 -42.5 69 -39 -38 опасность
обморожения
1016.7 982.4 -43.0
06 20.02 штиль 0 50 км 4/0
[Ac lent]
-29.3 -33.1 70 -29 -29 1016.3 983.3
09 20.02 штиль 0 50 км ясно -25.5 -30.2 65 -26 -26 1017.3 984.9
12 20.02 штиль 0 50 км ясно -36.7 -39.4 76 -37 -37 опасность
обморожения
1020.9 986.7 -24.7
15 20.02 штиль 0 50 км ясно -41.6 -45.0 69 -42 -42 опасность
обморожения
1022.9 988.0
18 20.02 штиль 0 50 км ясно -44.5 -47.6 71 -45 -45 опасность
обморожения
1024.5 989.0
21 20.02 штиль 0 50 км ясно -46.0 -47.2 87 -46 -46 опасность
обморожения
1026.2 990.6
03 21.02 штиль 0 50 км ясно -42.2 -45.6 69 -42 -41 опасность
обморожения
1025.0 990.0
06 21.02 штиль 0 50 км ясно -32.8 -38.0 60 -33 -32 опасность
обморожения
1022.5 988.8
09 21.02 штиль 0 50 км 3/0
[Cc]
-28.6 -34.0 60 -29 -29 1021.9 988.7
12 21.02 штиль 0 50 км ясно -37.8 -41.2 70 -38 -38 опасность
обморожения
1022.9 988.5 -28.5
15 21.02 штиль 0 50 км ясно -40.0 -43.4 70 -40 -40 опасность
обморожения
1022.4 987.8
18 21.02 штиль 0 50 км ясно -38.5 -42.0 69 -39 -39 опасность
обморожения
1021.7 987.2
21 21.02 штиль 0 20 км слабый снег 5/0
[Cs]
-37.0 -40.4 70 -37 -37 опасность
обморожения
1021.4 987.2
00 22.02 штиль 0 20 км слабый снег 8/0
[As op]
-35.5 -39.0 70 -36 -36 опасность
обморожения
1021.1 987.1 -40.8 0.3 35
03 22.02 В 1 20 км слабый снег 9/0
[Ac As]
-32.6 -36.2 70 -37 -37 опасность
обморожения
1020.3 986.7
06 22.02 штиль 0 50 км {снег} 5/0
[Ac lent]
-27.1 -31.7 65 -27 -26 1018.6 985.8
09 22.02 штиль 0 20 км слабый снег 8/0
[As op]
-25.5 -30.2 65 -26 -26 1018.2 985.7
18 22.02 штиль 0 20 км слабый снег 10/0
[Cs]
-30.5 -33.6 74 -31 -31 опасность
обморожения
1019.6 986.3
00 23.02 штиль 0 50 км {снег} 8/0
[Ac As Cs]
-36.8 -39.8 74 -37 -37 опасность
обморожения
1019.7 985.5 -36.9 0.0 35
03 23.02 штиль 0 50 км 3/0
[Cc]
-33.3 -37.0 69 -33 -32 опасность
обморожения
1019.3 985.7 -37.3
06 23.02 штиль 0 50 км ясно -25.8 -30.5 65 -26 -24 1018.4 985.8
09 23.02 штиль 0 50 км ясно -21.5 -26.3 65 -22 -22 1018.2 986.2
12 23.02 штиль 0 50 км ясно -32.6 -35.8 73 -33 -33 опасность
обморожения
1020.4 986.8 -21.3
18 23.02 штиль 0 50 км ледяные иглы {снег} ясно -37.5 -41.2 68 -38 -38 опасность
обморожения
1022.4 988.1
21 23.02 штиль 0 50 км {снег} ясно -39.2 -42.2 73 -39 -39 опасность
обморожения
1022.8 988.0
00 24.02 штиль 0 50 км {снег} ясно -40.2 -43.4 71 -40 -40 опасность
обморожения
1022.4 987.8 -40.2 0.0 35

 

Местоположение метеостанции Шелагонцы (Якутия, Россия): широта 66.25 долгота 114.20 высота над уровнем моря 236 м.

В архиве по умолчанию представлена погода в Шелагонцах за последнюю неделю. Архивные данные за месяц целиком и за предыдущие месяцы, начиная с января 2011 года, Вы можете получить, выбрав интересующий диапазон дат из раскрывающегося списка и нажав кнопку "Ввод!".

Внимание! Время в таблицах - всемирное. Для получения местного времени необходимо прибавить поправку, которая в Шелагонцах равна 9 ч.

Смотрите также архив погоды в соседних городах и на ближайших метеорологических станциях:

Погода в Полярном (Якутия, Россия) (96 км)
Погода в Эйке (Якутия, Россия) (146 км)
Погода в Хабардино (Якутия, Россия) (200 км)
Погода в Чумпуруке (Якутия, Россия) (257 км)
Погода в Оленеке (Якутия, Россия) (262 км)
Погода в Ярольине (Якутия, Россия) (269 км)
Погода в Сухане (Якутия, Россия) (316 км)
Погода в Чернышевском (Якутия, Россия) (368 км)
Погода в Нюрбе (Якутия, Россия) (383 км)
Погода в Жиганске (Якутия, Россия) (407 км)

Пояснения к столбцам:

Ветер - указаны скорость ветра в м/с - средняя за 10 мин, порывы в срок и между сроками (в фигурных скобках) и направление, откуда дует ветер: С - северный, СВ - северо-восточный, В - восточный, ЮВ - юго-восточный, Ю - южный, ЮЗ - юго-западный, З - западный, СЗ - северо-западный.
Видимость - горизонтальная дальность видимости в метрах или километрах. При видимости от 1 до 10 км при отсутствии осадков обычно наблюдается дымка, при ухудшении видимости до 1 км и менее - туман. В сухую погоду видимость может ухудшаться дымом, пылью или мглою.
Явления - указаны атмосферные явления, наблюдавшиеся в срок или в последний час перед сроком; фигурными скобками обозначены явления, наблюдавшиеся между сроками (за 1-3 часа до срока); квадратными скобками обозначены град или гололедные отложения с указанием их диаметра в мм.
Облачность - указаны через наклонную черту общая и нижняя облачность в баллах и высота нижней границы облаков в метрах; квадратными скобками обозначены формы облаков: Ci - перистые, Cs - перисто-слоистые, Cc - перисто-кучевые, Ac - высококучевые, As - высокослоистые, Sc - слоисто-кучевые, Ns - слоисто-дождевые, Cu - кучевые, Cb - кучево-дождевые. Подробнее классификацию облаков см. в Атласе облаков (PDF).
T - Температура воздуха - температура, измеренная на высоте 2 м над землей.
Td - Температура точки росы - температура, при понижении до которой содержащийся в воздухе водяной пар достигнет насыщения.
f - Относительная влажность воздуха - влажноcть воздуха, измеренная на высоте 2 м над землей.
Te - Эффективная температура - температура, которую ощущает одетый по сезону человек в тени. Характеристика душности погоды. При расчете учитывается влияние влажности воздуха и скорости ветра на теплоощущения человека.
Tes - Эффективная температура на солнце - температура, которую ощущает человек, с поправкой на солнечный нагрев. Характеристика знойности погоды. Зависит от высоты солнца над горизонтом, облачности и скорости ветра. Ночью, в пасмурную погоду, а также при ветре 12 м/с и более поправка равна нулю.
P - Атмосферное давление - приведенное к уровню моря атмосферное давление.
Po - Атмосферное давление - измеренное на уровне метеостанции атмосферное давление.
Tmin - Минимальная температура - минимум температуры воздуха на высоте 2 м над землей.
Tmax - Максимальная температура - максимум температуры воздуха на высоте 2 м над землей.
R - Количество осадков - Количество выпавших осадков, мм. При наведении курсора мыши на число - период времени, за который выпало указанное количество осадков.
S - Снежный покров - Высота снежного покрова, см. При наведении курсора мыши на число - состояние снежного покрова и степень покрытия местности в баллах.